QPF
0.02 0.01 0.01 0.00 0.00 0.00 0.01 0.01 0.01 0.00 0.00 0.00 0.00 0.00 0.00 0.00 0.00 0.01 0.01 0.02 0.02 0.02 0.02 0.02 0.03 0.04 0.06 0.05 0.05 0.06 0.06 0.07 0.07 0.06 0.07 0.07 0.07 0.06 0.05 0.06 0.06 0.08 0.11 0.13
0.02 0.01 0.01 0.01 0.01 0.00 0.00 0.00 0.00 0.00 0.00 0.00 0.00 0.00 0.00 0.00 0.00 0.00 0.00 0.01 0.01 0.02 0.02 0.03 0.04 0.06 0.05 0.05 0.06 0.06 0.06 0.06 0.08 0.07 0.06 0.06 0.05 0.05 0.06 0.05 0.06 0.06 0.08 0.11
0.03 0.01 0.03 0.02 0.00 0.00 0.00 0.00 0.00 0.00 0.00 0.00 0.00 0.00 0.00 0.00 0.00 0.00 0.00 0.00 0.00 0.01 0.01 0.02 0.04 0.05 0.06 0.07 0.07 0.07 0.06 0.06 0.07 0.07 0.06 0.04 0.05 0.05 0.06 0.05 0.05 0.05 0.05 0.07
0.05 0.03 0.04 0.01 0.00 0.00 0.00 0.00 0.00 0.00 0.00 0.00 0.00 0.00 0.00 0.00 0.00 0.00 0.00 0.00 0.00 0.00 0.01 0.01 0.03 0.04 0.04 0.06 0.07 0.07 0.06 0.07 0.08 0.07 0.06 0.05 0.05 0.06 0.06 0.05 0.06 0.05 0.04 0.05
0.07 0.05 0.02 0.00 0.00 0.00 0.00 0.00 0.00 0.00 0.00 0.00 0.00 0.00 0.00 0.00 0.00 0.00 0.00 0.00 0.00 0.00 0.00 0.01 0.02 0.03 0.03 0.04 0.05 0.05 0.04 0.06 0.07 0.07 0.07 0.06 0.06 0.05 0.04 0.04 0.04 0.04 0.04 0.03
0.07 0.05 0.02 0.00 0.00 0.00 0.00 0.00 0.00 0.00 0.00 0.00 0.00 0.00 0.00 0.00 0.00 0.00 0.00 0.00 0.00 0.00 0.00 0.00 0.01 0.03 0.03 0.03 0.03 0.04 0.04 0.04 0.04 0.05 0.05 0.05 0.06 0.05 0.03 0.03 0.03 0.04 0.04 0.04
0.06 0.05 0.02 0.00 0.00 0.00 0.00 0.01 0.00 0.00 0.00 0.00 0.00 0.00 0.00 0.00 0.00 0.00 0.00 0.00 0.00 0.00 0.00 0.00 0.01 0.02 0.03 0.03 0.02 0.02 0.03 0.04 0.03 0.04 0.05 0.04 0.05 0.05 0.03 0.03 0.03 0.03 0.04 0.04
0.06 0.07 0.03 0.00 0.00 0.00 0.00 0.00 0.00 0.00 0.00 0.00 0.00 0.00 0.00 0.00 0.00 0.00 0.00 0.00 0.00 0.00 0.00 0.00 0.01 0.02 0.02 0.02 0.02 0.02 0.02 0.03 0.03 0.03 0.04 0.04 0.04 0.05 0.04 0.03 0.03 0.03 0.03 0.04
0.04 0.03 0.01 0.00 0.00 0.00 0.00 0.00 0.00 0.00 0.00 0.00 0.00 0.00 0.00 0.00 0.00 0.00 0.00 0.00 0.00 0.00 0.00 0.00 0.01 0.01 0.01 0.01 0.02 0.02 0.03 0.03 0.02 0.02 0.02 0.03 0.05 0.05 0.04 0.03 0.03 0.02 0.02 0.03
0.02 0.01 0.01 0.00 0.00 0.00 0.00 0.00 0.00 0.00 0.00 0.00 0.00 0.00 0.00 0.00 0.00 0.00 0.00 0.00 0.00 0.00 0.00 0.00 0.00 0.01 0.01 0.00 0.01 0.02 0.03 0.03 0.03 0.03 0.02 0.02 0.04 0.05 0.04 0.04 0.03 0.03 0.02 0.02
0.01 0.00 0.00 0.00 0.00 0.00 0.00 0.00 0.00 0.00 0.00 0.00 0.00 0.00 0.00 0.00 0.00 0.00 0.00 0.00 0.00 0.00 0.00 0.00 0.00 0.01 0.01 0.01 0.01 0.02 0.01 0.02 0.03 0.03 0.03 0.03 0.03 0.04 0.04 0.03 0.04 0.05 0.04 0.03
0.01 0.01 0.01 0.00 0.00 0.00 0.00 0.00 0.00 0.00 0.00 0.00 0.00 0.00 0.00 0.00 0.00 0.00 0.00 0.00 0.00 0.00 0.00 0.00 0.00 0.01 0.01 0.01 0.01 0.01 0.01 0.01 0.02 0.03 0.03 0.03 0.04 0.05 0.03 0.02 0.03 0.03 0.03 0.04
0.00 0.00 0.00 0.00 0.00 0.00 0.00 0.00 0.00 0.00 0.00 0.00 0.00 0.00 0.00 0.00 0.00 0.00 0.00 0.00 0.00 0.00 0.00 0.00 0.00 0.01 0.01 0.01 0.01 0.01 0.01 0.01 0.01 0.02 0.03 0.03 0.04 0.05 0.03 0.02 0.02 0.02 0.03 0.03
0.00 0.00 0.00 0.00 0.00 0.00 0.00 0.00 0.00 0.00 0.00 0.00 0.00 0.00 0.00 0.00 0.00 0.00 0.00 0.00 0.00 0.00 0.00 0.00 0.00 0.01 0.01 0.01 0.01 0.01 0.01 0.01 0.01 0.01 0.02 0.02 0.03 0.03 0.03 0.03 0.02 0.02 0.02 0.03
0.00 0.00 0.00 0.00 0.00 0.00 0.00 0.00 0.00 0.00 0.00 0.00 0.00 0.00 0.00 0.00 0.00 0.00 0.00 0.00 0.00 0.00 0.00 0.00 0.00 0.00 0.01 0.01 0.01 0.01 0.02 0.02 0.02 0.02 0.02 0.03 0.02 0.01 0.01 0.01 0.01 0.02 0.02 0.02
0.00 0.00 0.01 0.01 0.00 0.00 0.00 0.00 0.00 0.00 0.00 0.00 0.00 0.00 0.00 0.00 0.00 0.00 0.00 0.00 0.00 0.00 0.00 0.00 0.00 0.00 0.01 0.01 0.01 0.01 0.01 0.01 0.02 0.02 0.03 0.03 0.02 0.01 0.01 0.01 0.01 0.01 0.01 0.01
0.01 0.01 0.01 0.00 0.00 0.00 0.00 0.00 0.00 0.00 0.00 0.00 0.00 0.00 0.00 0.00 0.00 0.00 0.00 0.00 0.00 0.00 0.00 0.00 0.00 0.00 0.01 0.01 0.02 0.01 0.01 0.01 0.02 0.03 0.03 0.02 0.02 0.01 0.01 0.01 0.01 0.01 0.01 0.01
0.01 0.00 0.00 0.00 0.00 0.00 0.00 0.00 0.00 0.00 0.01 0.00 0.00 0.00 0.00 0.00 0.00 0.00 0.00 0.00 0.00 0.00 0.00 0.00 0.00 0.00 0.00 0.01 0.02 0.02 0.01 0.01 0.02 0.03 0.02 0.02 0.02 0.02 0.01 0.01 0.01 0.01 0.01 0.01
0.00 0.00 0.00 0.00 0.00 0.00 0.01 0.00 0.00 0.00 0.00 0.01 0.00 0.00 0.00 0.00 0.00 0.00 0.00 0.00 0.00 0.00 0.00 0.00 0.00 0.00 0.00 0.01 0.02 0.02 0.02 0.02 0.02 0.03 0.02 0.02 0.02 0.02 0.02 0.01 0.01 0.01 0.01 0.02
0.00 0.00 0.00 0.01 0.01 0.01 0.01 0.01 0.01 0.01 0.01 0.00 0.00 0.00 0.00 0.00 0.00 0.00 0.00 0.00 0.00 0.00 0.00 0.00 0.00 0.00 0.01 0.01 0.02 0.02 0.02 0.02 0.03 0.03 0.02 0.02 0.02 0.03 0.02 0.02 0.02 0.02 0.02 0.03
0.00 0.01 0.01 0.01 0.01 0.01 0.01 0.01 0.01 0.01 0.01 0.01 0.00 0.00 0.00 0.00 0.00 0.00 0.00 0.00 0.00 0.00 0.00 0.00 0.00 0.01 0.01 0.01 0.02 0.02 0.02 0.03 0.03 0.04 0.03 0.02 0.03 0.04 0.03 0.03 0.02 0.02 0.03 0.03
0.00 0.00 0.00 0.00 0.01 0.01 0.01 0.00 0.00 0.01 0.01 0.00 0.00 0.00 0.00 0.00 0.00 0.00 0.00 0.00 0.00 0.00 0.00 0.00 0.01 0.01 0.01 0.02 0.02 0.02 0.03 0.03 0.04 0.04 0.04 0.03 0.03 0.04 0.04 0.03 0.03 0.03 0.04 0.04
0.00 0.00 0.00 0.00 0.00 0.00 0.00 0.00 0.00 0.00 0.00 0.00 0.01 0.01 0.00 0.00 0.00 0.00 0.01 0.01 0.01 0.01 0.01 0.01 0.01 0.01 0.01 0.02 0.02 0.02 0.03 0.04 0.04 0.04 0.04 0.04 0.03 0.04 0.05 0.05 0.05 0.04 0.04 0.04
0.00 0.00 0.00 0.00 0.00 0.00 0.00 0.01 0.00 0.00 0.00 0.01 0.01 0.01 0.00 0.00 0.00 0.00 0.01 0.01 0.01 0.01 0.01 0.01 0.01 0.01 0.01 0.01 0.02 0.02 0.03 0.04 0.04 0.04 0.04 0.04 0.04 0.05 0.07 0.07 0.06 0.05 0.04 0.04
0.00 0.01 0.01 0.01 0.01 0.01 0.01 0.01 0.00 0.00 0.01 0.01 0.01 0.01 0.01 0.01 0.01 0.01 0.01 0.01 0.01 0.01 0.01 0.01 0.01 0.01 0.01 0.01 0.02 0.02 0.03 0.04 0.04 0.05 0.05 0.05 0.05 0.06 0.07 0.07 0.07 0.06 0.05 0.05
0.01 0.01 0.01 0.01 0.01 0.01 0.01 0.01 0.01 0.01 0.01 0.01 0.01 0.01 0.01 0.01 0.01 0.01 0.01 0.01 0.01 0.01 0.01 0.01 0.01 0.01 0.01 0.01 0.02 0.02 0.03 0.04 0.04 0.04 0.05 0.05 0.05 0.06 0.06 0.07 0.07 0.07 0.06 0.06
0.00 0.01 0.01 0.01 0.01 0.01 0.01 0.01 0.01 0.01 0.01 0.01 0.01 0.01 0.01 0.01 0.01 0.01 0.01 0.01 0.01 0.01 0.01 0.01 0.01 0.01 0.01 0.01 0.02 0.02 0.03 0.03 0.04 0.05 0.05 0.05 0.05 0.06 0.07 0.07 0.07 0.07 0.07 0.06
MSLP
1001.97 1001.49 1001.04 1000.59 1000.14 999.69 999.23 998.79 998.36 997.99 997.69 997.49 997.40 997.43 997.58 997.81 998.11 998.45 998.80 999.14 999.46 999.75 1000.01 1000.27 1000.53 1000.80 1001.09 1001.41 1001.74 1002.10 1002.46 1002.83 1003.20 1003.57 1003.94 1004.30 1004.66 1005.02 1005.38 1005.73 1006.07 1006.41 1006.74 1007.07
1002.22 1001.65 1001.07 1000.49 999.93 999.38 998.87 998.40 997.99 997.67 997.43 997.30 997.28 997.36 997.54 997.78 998.07 998.40 998.74 999.08 999.41 999.74 1000.07 1000.40 1000.74 1001.08 1001.44 1001.80 1002.16 1002.52 1002.87 1003.21 1003.54 1003.86 1004.18 1004.50 1004.83 1005.16 1005.50 1005.83 1006.17 1006.50 1006.83 1007.15
1002.35 1001.69 1001.02 1000.35 999.70 999.09 998.53 998.05 997.66 997.37 997.18 997.10 997.12 997.23 997.42 997.66 997.95 998.26 998.60 998.95 999.31 999.69 1000.08 1000.49 1000.91 1001.33 1001.74 1002.14 1002.53 1002.88 1003.22 1003.53 1003.82 1004.11 1004.39 1004.68 1004.98 1005.29 1005.61 1005.94 1006.26 1006.58 1006.89 1007.19
1002.34 1001.63 1000.90 1000.18 999.49 998.84 998.28 997.80 997.43 997.17 997.02 996.97 997.02 997.14 997.32 997.56 997.83 998.14 998.48 998.84 999.24 999.66 1000.11 1000.58 1001.06 1001.53 1001.99 1002.41 1002.81 1003.16 1003.48 1003.76 1004.03 1004.28 1004.54 1004.81 1005.09 1005.39 1005.69 1006.00 1006.30 1006.59 1006.87 1007.13
1002.23 1001.50 1000.75 1000.01 999.32 998.68 998.14 997.69 997.35 997.13 997.00 996.98 997.04 997.16 997.34 997.56 997.82 998.12 998.46 998.83 999.25 999.70 1000.18 1000.69 1001.19 1001.69 1002.17 1002.60 1002.99 1003.33 1003.62 1003.89 1004.13 1004.37 1004.61 1004.87 1005.14 1005.42 1005.71 1005.99 1006.27 1006.52 1006.74 1006.95
1002.06 1001.33 1000.60 999.89 999.23 998.64 998.14 997.74 997.45 997.26 997.17 997.16 997.22 997.34 997.50 997.71 997.95 998.23 998.56 998.93 999.35 999.81 1000.30 1000.80 1001.31 1001.81 1002.27 1002.69 1003.05 1003.37 1003.65 1003.90 1004.13 1004.36 1004.59 1004.84 1005.10 1005.37 1005.64 1005.89 1006.13 1006.33 1006.50 1006.64
1001.88 1001.18 1000.49 999.84 999.25 998.74 998.31 997.97 997.73 997.58 997.51 997.51 997.56 997.66 997.80 997.98 998.20 998.46 998.76 999.12 999.52 999.96 1000.43 1000.91 1001.39 1001.86 1002.28 1002.67 1003.00 1003.30 1003.55 1003.79 1004.01 1004.24 1004.47 1004.72 1004.97 1005.23 1005.47 1005.69 1005.88 1006.03 1006.15 1006.23
1001.73 1001.09 1000.48 999.91 999.42 999.00 998.65 998.38 998.19 998.07 998.01 998.00 998.03 998.11 998.21 998.35 998.54 998.76 999.03 999.35 999.72 1000.12 1000.55 1000.98 1001.42 1001.83 1002.21 1002.55 1002.85 1003.11 1003.35 1003.58 1003.80 1004.03 1004.26 1004.50 1004.74 1004.98 1005.19 1005.38 1005.53 1005.64 1005.71 1005.75
1001.67 1001.10 1000.59 1000.13 999.75 999.42 999.16 998.96 998.81 998.70 998.64 998.61 998.60 998.63 998.69 998.78 998.92 999.09 999.32 999.59 999.91 1000.26 1000.63 1001.01 1001.38 1001.73 1002.06 1002.35 1002.62 1002.86 1003.08 1003.30 1003.52 1003.74 1003.97 1004.20 1004.43 1004.65 1004.83 1004.98 1005.10 1005.17 1005.21 1005.23
1001.72 1001.26 1000.86 1000.52 1000.24 1000.02 999.83 999.68 999.56 999.46 999.37 999.30 999.25 999.22 999.22 999.25 999.33 999.45 999.62 999.84 1000.10 1000.39 1000.70 1001.01 1001.32 1001.61 1001.88 1002.13 1002.36 1002.57 1002.78 1002.99 1003.20 1003.42 1003.64 1003.86 1004.07 1004.25 1004.41 1004.54 1004.62 1004.68 1004.71 1004.72
1001.93 1001.59 1001.31 1001.09 1000.91 1000.77 1000.65 1000.54 1000.43 1000.31 1000.19 1000.07 999.96 999.87 999.80 999.77 999.79 999.85 999.97 1000.13 1000.33 1000.56 1000.80 1001.05 1001.29 1001.52 1001.74 1001.95 1002.14 1002.33 1002.52 1002.71 1002.91 1003.11 1003.31 1003.51 1003.69 1003.85 1003.98 1004.07 1004.15 1004.19 1004.22 1004.24
1002.32 1002.10 1001.94 1001.82 1001.74 1001.67 1001.60 1001.52 1001.41 1001.27 1001.12 1000.95 1000.78 1000.62 1000.49 1000.40 1000.36 1000.36 1000.42 1000.52 1000.66 1000.82 1001.00 1001.19 1001.37 1001.55 1001.72 1001.88 1002.04 1002.19 1002.36 1002.53 1002.70 1002.87 1003.05 1003.21 1003.35 1003.48 1003.57 1003.65 1003.71 1003.75 1003.79 1003.84
1002.89 1002.78 1002.73 1002.71 1002.71 1002.70 1002.67 1002.60 1002.49 1002.34 1002.15 1001.94 1001.72 1001.52 1001.33 1001.19 1001.09 1001.04 1001.04 1001.08 1001.16 1001.26 1001.37 1001.50 1001.62 1001.74 1001.86 1001.97 1002.09 1002.22 1002.35 1002.48 1002.62 1002.75 1002.88 1003.00 1003.10 1003.18 1003.25 1003.30 1003.34 1003.38 1003.43 1003.50
1003.63 1003.63 1003.67 1003.73 1003.78 1003.82 1003.82 1003.76 1003.66 1003.50 1003.30 1003.06 1002.82 1002.57 1002.35 1002.17 1002.02 1001.92 1001.86 1001.85 1001.86 1001.90 1001.94 1002.00 1002.06 1002.12 1002.19 1002.26 1002.33 1002.41 1002.50 1002.59 1002.68 1002.77 1002.84 1002.91 1002.96 1003.00 1003.02 1003.04 1003.07 1003.10 1003.15 1003.22
1004.53 1004.60 1004.70 1004.81 1004.91 1004.98 1005.00 1004.97 1004.88 1004.73 1004.53 1004.29 1004.04 1003.78 1003.54 1003.32 1003.14 1002.99 1002.88 1002.80 1002.75 1002.71 1002.69 1002.68 1002.68 1002.67 1002.68 1002.69 1002.72 1002.75 1002.79 1002.83 1002.87 1002.90 1002.92 1002.93 1002.92 1002.91 1002.89 1002.87 1002.87 1002.89 1002.93 1003.00
1005.53 1005.65 1005.79 1005.93 1006.05 1006.14 1006.18 1006.17 1006.09 1005.96 1005.78 1005.56 1005.32 1005.06 1004.81 1004.58 1004.36 1004.17 1004.01 1003.86 1003.74 1003.63 1003.54 1003.45 1003.37 1003.31 1003.26 1003.21 1003.18 1003.16 1003.15 1003.13 1003.12 1003.09 1003.06 1003.01 1002.94 1002.88 1002.81 1002.76 1002.72 1002.71 1002.73 1002.78
1006.57 1006.71 1006.86 1007.00 1007.13 1007.23 1007.28 1007.28 1007.23 1007.13 1006.98 1006.78 1006.56 1006.32 1006.06 1005.81 1005.57 1005.33 1005.11 1004.90 1004.71 1004.52 1004.35 1004.19 1004.05 1003.92 1003.80 1003.71 1003.62 1003.55 1003.49 1003.42 1003.35 1003.28 1003.18 1003.08 1002.97 1002.85 1002.74 1002.65 1002.58 1002.53 1002.52 1002.54
1007.60 1007.73 1007.87 1007.99 1008.10 1008.19 1008.24 1008.25 1008.22 1008.14 1008.01 1007.84 1007.64 1007.40 1007.15 1006.88 1006.60 1006.32 1006.04 1005.77 1005.50 1005.24 1005.00 1004.77 1004.56 1004.38 1004.21 1004.06 1003.93 1003.82 1003.71 1003.60 1003.49 1003.36 1003.22 1003.07 1002.92 1002.76 1002.61 1002.48 1002.37 1002.29 1002.25 1002.24
1008.56 1008.67 1008.77 1008.85 1008.93 1008.98 1009.01 1009.02 1008.98 1008.91 1008.79 1008.63 1008.43 1008.19 1007.93 1007.63 1007.32 1007.00 1006.66 1006.33 1006.00 1005.67 1005.37 1005.08 1004.82 1004.58 1004.37 1004.19 1004.02 1003.87 1003.73 1003.58 1003.43 1003.27 1003.09 1002.91 1002.72 1002.53 1002.35 1002.20 1002.06 1001.96 1001.89 1001.85
1009.43 1009.49 1009.53 1009.56 1009.58 1009.58 1009.57 1009.54 1009.48 1009.39 1009.26 1009.09 1008.88 1008.62 1008.33 1008.01 1007.66 1007.29 1006.90 1006.52 1006.13 1005.76 1005.41 1005.08 1004.78 1004.51 1004.27 1004.05 1003.86 1003.68 1003.51 1003.34 1003.16 1002.97 1002.77 1002.56 1002.35 1002.14 1001.95 1001.77 1001.63 1001.51 1001.42 1001.37
1010.18 1010.19 1010.17 1010.12 1010.07 1010.00 1009.93 1009.84 1009.72 1009.59 1009.42 1009.22 1008.97 1008.69 1008.36 1008.00 1007.61 1007.20 1006.78 1006.35 1005.93 1005.52 1005.14 1004.79 1004.46 1004.17 1003.91 1003.68 1003.47 1003.27 1003.07 1002.88 1002.68 1002.47 1002.25 1002.03 1001.81 1001.60 1001.40 1001.22 1001.07 1000.95 1000.87 1000.81
1010.84 1010.78 1010.68 1010.55 1010.41 1010.26 1010.10 1009.93 1009.75 1009.55 1009.32 1009.07 1008.77 1008.44 1008.08 1007.68 1007.25 1006.81 1006.36 1005.91 1005.47 1005.04 1004.65 1004.29 1003.95 1003.65 1003.38 1003.14 1002.91 1002.69 1002.48 1002.27 1002.05 1001.82 1001.60 1001.37 1001.15 1000.94 1000.74 1000.58 1000.44 1000.33 1000.26 1000.21
1011.39 1011.26 1011.08 1010.87 1010.64 1010.40 1010.15 1009.89 1009.62 1009.35 1009.05 1008.73 1008.38 1008.00 1007.59 1007.15 1006.70 1006.24 1005.77 1005.31 1004.86 1004.44 1004.04 1003.67 1003.34 1003.04 1002.76 1002.50 1002.26 1002.03 1001.80 1001.56 1001.33 1001.09 1000.86 1000.63 1000.42 1000.22 1000.04 999.90 999.78 999.69 999.64 999.60
1011.86 1011.66 1011.40 1011.10 1010.78 1010.45 1010.11 1009.76 1009.41 1009.06 1008.69 1008.30 1007.90 1007.47 1007.03 1006.56 1006.09 1005.61 1005.13 1004.67 1004.22 1003.80 1003.40 1003.04 1002.71 1002.40 1002.11 1001.84 1001.58 1001.33 1001.08 1000.83 1000.59 1000.34 1000.11 999.88 999.68 999.50 999.34 999.22 999.13 999.07 999.03 999.02
1012.23 1011.95 1011.62 1011.25 1010.85 1010.44 1010.03 1009.61 1009.18 1008.76 1008.33 1007.89 1007.44 1006.97 1006.49 1006.01 1005.51 1005.02 1004.54 1004.07 1003.62 1003.20 1002.80 1002.43 1002.09 1001.77 1001.47 1001.19 1000.91 1000.64 1000.37 1000.11 999.85 999.60 999.36 999.15 998.96 998.80 998.67 998.57 998.51 998.46 998.45 998.45
1012.47 1012.14 1011.74 1011.31 1010.86 1010.39 1009.92 1009.44 1008.97 1008.50 1008.02 1007.54 1007.05 1006.55 1006.05 1005.53 1005.02 1004.51 1004.01 1003.53 1003.07 1002.63 1002.22 1001.84 1001.48 1001.14 1000.82 1000.51 1000.21 999.92 999.63 999.36 999.09 998.84 998.62 998.42 998.24 998.11 998.00 997.93 997.88 997.86 997.85 997.86
1012.58 1012.19 1011.76 1011.29 1010.79 1010.29 1009.79 1009.28 1008.78 1008.28 1007.78 1007.27 1006.75 1006.22 1005.69 1005.15 1004.60 1004.06 1003.53 1003.01 1002.52 1002.05 1001.61 1001.19 1000.80 1000.43 1000.08 999.74 999.42 999.11 998.82 998.54 998.28 998.03 997.82 997.64 997.49 997.37 997.29 997.23 997.20 997.19 997.19 997.19
Thickness
5489 5498 5496 5491 5493 5493 5488 5490 5488 5505 5513 5525 5524 5519 5517 5515 5513 5511 5508 5504 5501 5497 5494 5492 5490 5490 5490 5490 5490 5490 5489 5488 5487 5487 5487 5487 5487 5487 5488 5488 5489 5491 5493 5495
5473 5486 5485 5483 5491 5493 5491 5492 5493 5496 5505 5519 5515 5512 5508 5505 5503 5500 5497 5495 5492 5489 5485 5482 5479 5478 5478 5478 5479 5479 5478 5476 5476 5475 5476 5476 5477 5477 5478 5478 5479 5480 5482 5484
5458 5469 5466 5468 5492 5493 5491 5496 5493 5489 5502 5508 5503 5501 5498 5496 5493 5490 5488 5484 5481 5477 5474 5471 5469 5468 5467 5467 5467 5466 5465 5465 5465 5465 5465 5465 5467 5468 5468 5468 5469 5471 5472 5475
5443 5445 5440 5481 5502 5501 5496 5498 5497 5495 5498 5497 5494 5492 5490 5487 5484 5480 5477 5474 5471 5467 5464 5462 5460 5459 5458 5457 5456 5454 5454 5454 5454 5454 5454 5455 5456 5457 5458 5459 5461 5462 5464 5466
5431 5434 5447 5477 5489 5490 5483 5484 5492 5489 5489 5488 5485 5480 5477 5478 5474 5469 5466 5463 5460 5457 5454 5452 5450 5449 5447 5445 5444 5443 5443 5443 5443 5443 5444 5444 5446 5447 5449 5450 5453 5454 5456 5458
5423 5425 5436 5468 5479 5483 5474 5462 5481 5480 5477 5475 5470 5455 5459 5464 5462 5458 5455 5452 5449 5446 5444 5441 5439 5438 5437 5435 5434 5433 5432 5432 5433 5434 5434 5435 5436 5438 5441 5442 5445 5447 5449 5452
5416 5419 5433 5462 5465 5465 5445 5450 5466 5467 5463 5459 5453 5448 5449 5451 5449 5446 5443 5440 5438 5435 5431 5430 5429 5427 5425 5424 5423 5423 5422 5423 5424 5425 5425 5427 5428 5430 5432 5435 5437 5439 5442 5445
5411 5412 5425 5450 5447 5443 5443 5452 5453 5452 5450 5446 5444 5443 5442 5439 5437 5434 5430 5429 5426 5423 5421 5420 5419 5416 5414 5413 5413 5414 5414 5414 5415 5416 5416 5418 5419 5422 5423 5425 5428 5431 5434 5438
5413 5420 5433 5436 5437 5439 5440 5437 5438 5436 5435 5434 5432 5430 5429 5426 5423 5421 5419 5416 5415 5412 5410 5409 5408 5406 5404 5404 5404 5404 5404 5405 5406 5407 5408 5409 5410 5413 5415 5417 5419 5422 5425 5429
5408 5418 5426 5426 5427 5428 5427 5425 5425 5424 5423 5421 5418 5417 5415 5412 5410 5408 5407 5405 5403 5401 5399 5398 5397 5396 5394 5394 5394 5394 5394 5395 5396 5397 5399 5401 5402 5404 5406 5407 5409 5412 5415 5419
5398 5409 5414 5417 5416 5416 5416 5415 5414 5412 5411 5409 5406 5404 5402 5399 5397 5396 5395 5393 5391 5389 5387 5386 5386 5385 5384 5384 5383 5383 5384 5385 5386 5388 5389 5391 5393 5394 5396 5399 5400 5403 5407 5410
5391 5401 5400 5402 5404 5404 5403 5402 5400 5398 5397 5396 5394 5391 5389 5386 5385 5383 5382 5381 5379 5377 5376 5375 5375 5374 5374 5373 5373 5373 5374 5375 5375 5377 5378 5380 5383 5386 5389 5391 5395 5397 5399 5402
5391 5392 5392 5393 5392 5391 5389 5388 5387 5385 5384 5381 5380 5378 5376 5374 5372 5370 5369 5368 5367 5365 5365 5364 5364 5364 5363 5363 5363 5362 5363 5364 5365 5367 5368 5370 5372 5375 5379 5384 5387 5389 5392 5396
5379 5379 5380 5379 5376 5375 5374 5374 5373 5372 5371 5369 5366 5365 5363 5361 5359 5357 5356 5356 5356 5355 5354 5354 5354 5354 5353 5353 5353 5353 5354 5355 5356 5357 5358 5360 5362 5365 5368 5372 5377 5381 5385 5388
5364 5364 5363 5363 5362 5361 5360 5360 5359 5357 5356 5355 5353 5351 5349 5347 5346 5345 5345 5345 5345 5344 5344 5344 5344 5344 5344 5343 5343 5344 5345 5346 5347 5349 5350 5352 5355 5357 5360 5363 5367 5372 5376 5381
5350 5351 5350 5349 5348 5347 5347 5346 5344 5343 5342 5341 5339 5338 5337 5336 5335 5335 5334 5334 5333 5333 5334 5334 5334 5334 5334 5334 5335 5336 5337 5339 5340 5341 5342 5344 5347 5350 5353 5356 5359 5363 5368 5371
5335 5335 5334 5333 5333 5333 5333 5332 5331 5330 5328 5327 5325 5325 5324 5324 5324 5323 5323 5322 5322 5323 5324 5324 5324 5325 5325 5326 5326 5327 5328 5330 5333 5334 5335 5337 5340 5342 5346 5349 5352 5356 5359 5363
5322 5321 5321 5320 5320 5320 5320 5319 5318 5317 5315 5314 5314 5313 5312 5312 5311 5311 5311 5312 5312 5313 5313 5313 5314 5315 5316 5317 5318 5319 5320 5322 5323 5325 5328 5330 5333 5336 5339 5343 5346 5349 5353 5356
5311 5310 5309 5309 5308 5307 5307 5306 5305 5304 5303 5302 5301 5300 5300 5300 5300 5300 5301 5301 5301 5302 5303 5303 5306 5306 5307 5308 5310 5311 5312 5314 5316 5319 5322 5325 5328 5330 5334 5337 5340 5343 5346 5349
5300 5299 5297 5296 5295 5294 5293 5293 5293 5292 5291 5290 5289 5289 5288 5288 5289 5289 5289 5290 5291 5291 5293 5295 5296 5297 5298 5300 5303 5303 5305 5307 5309 5312 5315 5318 5321 5324 5328 5331 5334 5336 5340 5343
5288 5287 5286 5284 5284 5283 5283 5282 5281 5280 5280 5280 5279 5278 5278 5278 5278 5279 5279 5281 5282 5283 5285 5287 5288 5289 5290 5293 5295 5296 5297 5299 5302 5305 5308 5311 5315 5318 5322 5325 5328 5331 5334 5338
5277 5276 5275 5274 5273 5272 5271 5271 5270 5270 5270 5269 5269 5268 5268 5268 5269 5270 5270 5271 5274 5276 5277 5278 5279 5281 5283 5286 5287 5288 5290 5293 5295 5298 5301 5304 5308 5312 5316 5319 5322 5326 5329 5332
5268 5267 5266 5264 5263 5262 5261 5260 5260 5260 5259 5259 5259 5259 5259 5259 5260 5260 5262 5263 5264 5267 5268 5269 5271 5274 5277 5278 5280 5281 5283 5286 5288 5291 5294 5298 5302 5306 5310 5313 5317 5321 5324 5327
5259 5258 5256 5255 5254 5253 5252 5252 5252 5252 5251 5250 5250 5250 5250 5250 5251 5252 5253 5255 5257 5259 5260 5261 5265 5267 5270 5270 5272 5274 5276 5279 5282 5285 5288 5292 5296 5300 5304 5308 5311 5315 5319 5323
5249 5248 5247 5246 5245 5245 5245 5244 5243 5243 5243 5242 5242 5242 5242 5242 5242 5243 5244 5246 5249 5251 5252 5254 5257 5260 5261 5263 5265 5268 5270 5273 5277 5280 5283 5287 5291 5295 5299 5302 5306 5310 5314 5318
5241 5240 5240 5239 5238 5238 5238 5237 5237 5236 5236 5235 5235 5234 5234 5235 5235 5236 5237 5239 5240 5243 5244 5246 5248 5252 5254 5257 5259 5262 5265 5268 5271 5274 5278 5282 5286 5290 5294 5298 5302 5306 5310 5315
5235 5234 5233 5232 5232 5231 5231 5230 5229 5229 5228 5228 5227 5227 5227 5228 5229 5230 5231 5232 5234 5236 5238 5240 5243 5246 5249 5252 5255 5258 5260 5264 5267 5270 5274 5278 5281 5285 5289 5293 5298 5302 5307 5311